Weather History for KSDA - June, 2012

Change the Weather History Date:

Monday, June 11, 2012

  Actual Average Record
Temperature  
Mean Temperature 75 °F -  
Max Temperature 84 °F 82 °F 101 °F (1952)
Min Temperature 66 °F 60 °F 44 °F (1988)
Cooling Degree Days 10    
Growing Degree Days 25 (Base 50)    
Moisture  
Dew Point 62 °F    
Average Humidity 67    
Maximum Humidity 94    
Minimum Humidity 30    
Precipitation  
Precipitation 0.08 in - - ()
Sea Level Pressure  
Sea Level Pressure 29.94 in    
Wind  
Wind Speed 5 mph (NW)    
Max Wind Speed 15 mph    
Max Gust Speed 21 mph    
Visibility 9 miles    
Events Fog , Rain    
Averages and records for this station are not official NWS values.
T = Trace of Precipitation, MM = Missing Value Source: NWS Daily Summary

Daily Weather History Graph

Daily Weather History Graph

Search for Another Location

Airport or City:

Trip Planner

Search our weather history database for the weather conditions in past years. The results will help you decide how hot, cold, wet, or windy it might be!

Date:

Astronomy

Jun. 11, 2012 Rise Set
Actual Time 5:49 AM CDT 8:53 PM CDT
Civil Twilight 5:16 AM CDT 9:26 PM CDT
Nautical Twilight 4:34 AM CDT 10:08 PM CDT
Astronomical Twilight 3:44 AM CDT 10:58 PM CDT
Moon 1:11 AM CDT (6/11) 1:42 PM CDT (6/11)
Length of Visible Light 16h 09m
Length of Day
15h 03m
Waning Gibbous, 47% of the Moon is Illuminated
Jun 11
Waning Gibbous
Jun 19
New
Jun 26
First Quarter
Jul 3
Full
Jul 10
Last Quarter

Hourly Weather History & Observations

Time (CDT) Temp. Heat Index Dew Point Humidity Pressure Visibility Wind Dir Wind Speed Gust Speed Precip Events Conditions
12:15 AM 71.6 °F - 68.0 °F 88% 29.80 in 7.0 mi East 4.6 mph - 0.02 in Rain Light Rain
12:35 AM 71.6 °F - 68.0 °F 88% 29.79 in 10.0 mi ESE 6.9 mph - 0.06 in Rain Rain
12:55 AM 71.6 °F - 69.8 °F 94% 29.78 in 10.0 mi ESE 9.2 mph - 0.07 in   Mostly Cloudy
1:15 AM 73.4 °F - 69.8 °F 88% 29.80 in 10.0 mi Calm Calm - 0.01 in   Overcast
1:35 AM 71.6 °F - 69.8 °F 94% 29.80 in 10.0 mi Calm Calm - 0.01 in   Mostly Cloudy
1:55 AM 71.6 °F - 68.0 °F 88% 29.77 in 10.0 mi NNW 6.9 mph - 0.01 in   Scattered Clouds
2:15 AM 71.6 °F - 68.0 °F 88% 29.77 in 10.0 mi Calm Calm - N/A   Clear
2:35 AM 71.6 °F - 68.0 °F 88% 29.80 in 10.0 mi Calm Calm - N/A   Clear
2:55 AM 71.6 °F - 68.0 °F 88% 29.80 in 10.0 mi Calm Calm - N/A   Scattered Clouds
3:15 AM 71.6 °F - 68.0 °F 88% 29.82 in 10.0 mi Calm Calm - N/A   Mostly Cloudy
3:35 AM 71.6 °F - 68.0 °F 88% 29.83 in 7.0 mi Calm Calm - N/A   Mostly Cloudy
3:55 AM 71.6 °F - 68.0 °F 88% 29.81 in 7.0 mi Calm Calm - N/A   Overcast
4:15 AM 71.6 °F - 68.0 °F 88% 29.81 in 5.0 mi Calm Calm - N/A   Overcast
4:35 AM 71.6 °F - 68.0 °F 88% 29.82 in 5.0 mi West 3.5 mph - N/A   Overcast
4:55 AM 71.6 °F - 68.0 °F 88% 29.82 in 7.0 mi Calm Calm - N/A   Overcast
5:15 AM 71.6 °F - 68.0 °F 88% 29.83 in 7.0 mi Calm Calm - N/A   Overcast
5:35 AM 71.6 °F - 66.2 °F 83% 29.84 in 7.0 mi West 3.5 mph - N/A   Overcast
5:55 AM 69.8 °F - 66.2 °F 88% 29.85 in 5.0 mi Calm Calm - N/A   Overcast
6:15 AM 69.8 °F - 66.2 °F 88% 29.87 in 2.0 mi SW 3.5 mph - N/A   Overcast
6:35 AM 69.8 °F - 66.2 °F 88% 29.87 in 1.5 mi WSW 3.5 mph - N/A   Overcast
6:55 AM 69.8 °F - 66.2 °F 88% 29.87 in 1.0 mi WSW 3.5 mph - N/A   Overcast
7:15 AM 68.0 °F - 66.2 °F 94% 29.87 in 0.2 mi Calm Calm - N/A Fog Fog
7:35 AM 68.0 °F - 66.2 °F 94% 29.87 in 0.2 mi WSW 4.6 mph - N/A Fog Fog
7:55 AM 68.0 °F - 66.2 °F 94% 29.88 in 0.2 mi WSW 4.6 mph - N/A Fog Fog
8:15 AM 69.8 °F - 66.2 °F 88% 29.88 in 1.5 mi West 4.6 mph - N/A   Overcast
8:35 AM 69.8 °F - 66.2 °F 88% 29.90 in 5.0 mi WNW 6.9 mph - N/A   Overcast
8:55 AM 71.6 °F - 66.2 °F 83% 29.90 in 7.0 mi NW 9.2 mph - N/A   Mostly Cloudy
9:15 AM 73.4 °F - 66.2 °F 78% 29.91 in 10.0 mi WNW 10.4 mph - N/A   Scattered Clouds
9:35 AM 73.4 °F - 66.2 °F 78% 29.93 in 10.0 mi NW 9.2 mph - N/A   Clear
9:55 AM 75.2 °F - 64.4 °F 69% 29.93 in 10.0 mi NW 8.1 mph - N/A   Clear
10:15 AM 75.2 °F - 64.4 °F 69% 29.94 in 10.0 mi NNW 8.1 mph - N/A   Clear
10:35 AM 75.2 °F - 64.4 °F 69% 29.95 in 10.0 mi NNW 8.1 mph 16.1 mph N/A   Scattered Clouds
10:55 AM 75.2 °F - 62.6 °F 65% 29.95 in 10.0 mi NNW 8.1 mph 18.4 mph N/A   Clear
11:15 AM 75.2 °F - 62.6 °F 65% 29.96 in 10.0 mi North 9.2 mph - N/A   Clear
11:35 AM 77.0 °F - 60.8 °F 57% 29.96 in 10.0 mi NNW 10.4 mph - N/A   Clear
11:55 AM 77.0 °F - 60.8 °F 57% 29.97 in 10.0 mi NNW 8.1 mph 18.4 mph N/A   Clear
12:15 PM 78.8 °F - 60.8 °F 54% 29.97 in 10.0 mi North 10.4 mph 16.1 mph N/A   Clear
12:35 PM 78.8 °F - 57.2 °F 47% 29.98 in 10.0 mi NNW 9.2 mph 16.1 mph N/A   Clear
12:55 PM 78.8 °F - 57.2 °F 47% 29.98 in 10.0 mi NW 11.5 mph 18.4 mph N/A   Clear
1:15 PM 78.8 °F - 57.2 °F 47% 29.98 in 10.0 mi NNW 15.0 mph 20.7 mph N/A   Clear
1:35 PM 80.6 °F 81.1 °F 59.0 °F 48% 29.98 in 10.0 mi NNW 11.5 mph 16.1 mph N/A   Clear
1:55 PM 80.6 °F 80.8 °F 57.2 °F 45% 29.98 in 10.0 mi NNW 10.4 mph 18.4 mph N/A   Clear
2:15 PM 80.6 °F 81.1 °F 59.0 °F 48% 29.98 in 10.0 mi NW 10.4 mph 17.3 mph N/A   Clear
2:35 PM 80.6 °F 80.5 °F 55.4 °F 42% 29.99 in 10.0 mi WNW 13.8 mph 20.7 mph N/A   Clear
2:55 PM 82.4 °F 82.0 °F 57.2 °F 42% 29.99 in 10.0 mi NNW 12.7 mph 16.1 mph N/A   Clear
3:15 PM 82.4 °F 81.7 °F 55.4 °F 39% 29.99 in 10.0 mi NW 9.2 mph - N/A   Clear
3:35 PM 82.4 °F 82.0 °F 57.2 °F 42% 29.99 in 10.0 mi NNW 8.1 mph 17.3 mph N/A   Clear
3:55 PM 82.4 °F 81.7 °F 55.4 °F 39% 29.99 in 10.0 mi NW 6.9 mph - N/A   Clear
4:15 PM 82.4 °F 81.7 °F 55.4 °F 39% 30.00 in 10.0 mi NNW 15.0 mph - N/A   Clear
4:35 PM 84.2 °F 83.0 °F 55.4 °F 37% 30.00 in 10.0 mi NW 9.2 mph - N/A   Clear
4:55 PM 82.4 °F 81.4 °F 53.6 °F 37% 30.00 in 10.0 mi NNW 10.4 mph 17.3 mph N/A   Clear
5:15 PM 84.2 °F 82.8 °F 53.6 °F 35% 30.00 in 10.0 mi NNW 10.4 mph 16.1 mph N/A   Clear
5:35 PM 84.2 °F 82.8 °F 53.6 °F 35% 30.01 in 10.0 mi NNW 8.1 mph 16.1 mph N/A   Clear
5:55 PM 84.2 °F 82.8 °F 53.6 °F 35% 30.01 in 10.0 mi NNW 8.1 mph - N/A   Clear
6:15 PM 82.4 °F - 51.8 °F 35% 30.01 in 10.0 mi NNW 8.1 mph - N/A   Clear
6:35 PM 82.4 °F 81.4 °F 53.6 °F 37% 30.01 in 10.0 mi North 8.1 mph - N/A   Clear
6:55 PM 82.4 °F - 51.8 °F 35% 30.01 in 10.0 mi NNW 10.4 mph 17.3 mph N/A   Clear
7:15 PM 82.4 °F - 48.2 °F 30% 30.02 in 10.0 mi NNW 8.1 mph - N/A   Clear
7:35 PM 80.6 °F 80.3 °F 53.6 °F 39% 30.02 in 10.0 mi NNW 4.6 mph - N/A   Clear
7:55 PM 80.6 °F 80.5 °F 55.4 °F 42% 30.02 in 10.0 mi North 4.6 mph - N/A   Clear
8:15 PM 77.0 °F - 59.0 °F 54% 30.03 in 10.0 mi North 3.5 mph - N/A   Clear
8:35 PM 75.2 °F - 59.0 °F 57% 30.03 in 10.0 mi North 3.5 mph - N/A   Clear
8:55 PM 73.4 °F - 57.2 °F 57% 30.03 in 10.0 mi Calm Calm - N/A   Clear
9:15 PM 71.6 °F - 57.2 °F 60% 30.04 in 10.0 mi Calm Calm - N/A   Clear
9:35 PM 69.8 °F - 62.6 °F 78% 30.05 in 10.0 mi Calm Calm - N/A   Scattered Clouds
9:55 PM 68.0 °F - 60.8 °F 78% 30.06 in 10.0 mi Calm Calm - N/A   Scattered Clouds
10:15 PM 68.0 °F - 60.8 °F 78% 30.07 in 10.0 mi Calm Calm - N/A   Scattered Clouds
10:35 PM 66.2 °F - 60.8 °F 83% 30.08 in 10.0 mi Calm Calm - N/A   Scattered Clouds
10:55 PM 66.2 °F - 60.8 °F 83% 30.09 in 10.0 mi Calm Calm - N/A   Scattered Clouds
11:15 PM 68.0 °F - 57.2 °F 68% 30.09 in 10.0 mi North 5.8 mph - N/A   Scattered Clouds
11:35 PM 68.0 °F - 57.2 °F 68% 30.09 in 10.0 mi North 6.9 mph - N/A   Scattered Clouds
11:55 PM 68.0 °F - 57.2 °F 68% 30.09 in 10.0 mi North 5.8 mph - N/A   Scattered Clouds